Location: Campillo
(40.8621°N, 4.2488°W)
Time: 12:38:58
(UTC+00:00)

Cosmos 1271 Rocket - Pass Details

Date: 11 May 2021
Orbit: 497 x 545 km, 81.2° (Epoch: 13 June)

Event Time Altitude Azimuth Distance (km) Brightness Sun altitude
Exits shadow 21:54:45 87° 277° (W) 551 2.7 -22.8°
Maximum altitude 21:54:46 87° 280° (W) 551 2.7 -22.8°
Drops below altitude 10° 21:58:47 10° 9° (N) 1,822 6.1 -23.3°
Sets 22:00:58 0° 10° (N) 2,719 7.0 -23.5°
